When you browse on this site, cookies collect data to enhance your experience and personalize the content and advertising you see.
Visit our Privacy Policy to learn more. By continuing to use the site, you agree to this use of cookies and data.
  • In Italy
  • List of Countries
  • For 7 days
  • Water Temperature
  • Satellite Maps
  • Weather Map
  • Weather Widgets
  • user-avatar
    Login

    Hourly Weather Lankaran

    Today, 10 December, Monday

    Time Temperature Precipitation Wind Pressure Humidity
    00:00 +1°C° 0.1 mm 2 mps 633 mmHg 89%
    01:00 +1°C° 0.1 mm 2 mps 633 mmHg 88%
    02:00 +1°C° 0.1 mm 2 mps 633 mmHg 87%
    03:00 +1°C° 0 mm 2 mps 633 mmHg 88%
    04:00 +1°C° 0 mm 2 mps 633 mmHg 87%
    05:00 -1°C° 0 mm 2 mps 632 mmHg 85%
    06:00 -1°C° 0 mm 2 mps 632 mmHg 84%
    07:00 +1°C° 0 mm 2 mps 633 mmHg 78%
    08:00 +3°C° 0 mm 2 mps 633 mmHg 72%
    09:00 +4°C° 0 mm 2 mps 633 mmHg 66%
    10:00 +5°C° 0 mm 2 mps 633 mmHg 62%
    11:00 +5°C° 0 mm 3 mps 633 mmHg 58%
    12:00 +5°C° 0 mm 3 mps 633 mmHg 54%
    13:00 +5°C° 0 mm 3 mps 633 mmHg 55%
    14:00 +5°C° 0 mm 3 mps 632 mmHg 56%
    15:00 +5°C° 0 mm 3 mps 632 mmHg 57%
    16:00 +5°C° 0 mm 2 mps 632 mmHg 60%
    17:00 +4°C° 0 mm 2 mps 632 mmHg 63%
    18:00 +3°C° 0 mm 2 mps 632 mmHg 66%
    19:00 +3°C° 0 mm 2 mps 632 mmHg 64%
    20:00 +3°C° 0 mm 2 mps 632 mmHg 63%
    21:00 +1°C° 0 mm 3 mps 632 mmHg 62%
    22:00 +1°C° 0 mm 3 mps 632 mmHg 61%
    23:00 +1°C° 0 mm 3 mps 631 mmHg 59%

    Tomorrow, 11 December, Tuesday

    Time Temperature Precipitation Wind Pressure Humidity
    00:00 +1°C° 0 mm 3 mps 631 mmHg 58%
    01:00 +1°C° 0 mm 3 mps 631 mmHg 57%
    02:00 +1°C° 0 mm 3 mps 631 mmHg 56%
    03:00 0°C° 0 mm 3 mps 631 mmHg 55%
    04:00 0°C° 0 mm 3 mps 631 mmHg 55%
    05:00 0°C° 0 mm 3 mps 631 mmHg 55%
    06:00 0°C° 0 mm 3 mps 631 mmHg 55%
    07:00 +2°C° 0 mm 3 mps 632 mmHg 53%
    08:00 +3°C° 0 mm 3 mps 632 mmHg 51%
    09:00 +4°C° 0 mm 3 mps 633 mmHg 48%
    10:00 +7°C° 0 mm 3 mps 633 mmHg 46%
    11:00 +7°C° 0 mm 4 mps 633 mmHg 44%
    12:00 +8°C° 0 mm 4 mps 632 mmHg 42%
    13:00 +8°C° 0 mm 4 mps 632 mmHg 43%
    14:00 +8°C° 0 mm 4 mps 632 mmHg 44%
    15:00 +8°C° 0 mm 4 mps 631 mmHg 45%
    16:00 +7°C° 0 mm 4 mps 631 mmHg 48%
    17:00 +5°C° 0 mm 4 mps 631 mmHg 51%
    18:00 +4°C° 0 mm 3 mps 631 mmHg 55%
    19:00 +4°C° 0 mm 4 mps 631 mmHg 54%
    20:00 +4°C° 0 mm 4 mps 630 mmHg 54%
    21:00 +4°C° 0 mm 4 mps 630 mmHg 54%
    22:00 +3°C° 0 mm 4 mps 630 mmHg 54%
    23:00 +3°C° 0 mm 4 mps 630 mmHg 53%

    Day after tomorrow, 12 December, Wednesday

    Time Temperature Precipitation Wind Pressure Humidity
    00:00 +3°C° 0 mm 4 mps 630 mmHg 52%
    01:00 +3°C° 0 mm 4 mps 630 mmHg 51%
    02:00 +3°C° 0 mm 4 mps 630 mmHg 49%
    03:00 +3°C° 0 mm 4 mps 630 mmHg 47%
    04:00 +1°C° 0 mm 4 mps 630 mmHg 47%
    05:00 +1°C° 0 mm 4 mps 630 mmHg 47%
    06:00 +1°C° 0 mm 4 mps 630 mmHg 47%
    07:00 +3°C° 0 mm 4 mps 631 mmHg 45%
    08:00 +5°C° 0 mm 4 mps 632 mmHg 42%
    09:00 +6°C° 0 mm 4 mps 632 mmHg 40%
    10:00 +7°C° 0 mm 4 mps 632 mmHg 38%
    11:00 +8°C° 0 mm 5 mps 632 mmHg 36%
    12:00 +10°C° 0 mm 5 mps 633 mmHg 35%
    13:00 +9°C° 0 mm 5 mps 632 mmHg 36%
    14:00 +10°C° 0 mm 4 mps 632 mmHg 38%
    15:00 +10°C° 0 mm 4 mps 631 mmHg 40%
    16:00 +7°C° 0 mm 4 mps 631 mmHg 43%
    17:00 +6°C° 0 mm 4 mps 631 mmHg 46%
    18:00 +4°C° 0 mm 4 mps 630 mmHg 49%
    19:00 +4°C° 0 mm 4 mps 630 mmHg 49%
    20:00 +4°C° 0 mm 4 mps 630 mmHg 49%
    21:00 +4°C° 0 mm 4 mps 630 mmHg 48%
    22:00 +4°C° 0 mm 4 mps 630 mmHg 46%
    23:00 +3°C° 0 mm 5 mps 630 mmHg 44%

    13 December, Thursday

    Time Temperature Precipitation Wind Pressure Humidity
    00:00 +3°C° 0 mm 5 mps 629 mmHg 43%
    01:00 +3°C° 0 mm 4 mps 629 mmHg 42%
    02:00 +3°C° 0 mm 4 mps 629 mmHg 42%
    03:00 +3°C° 0 mm 4 mps 629 mmHg 42%
    04:00 +3°C° 0 mm 4 mps 629 mmHg 43%
    05:00 +1°C° 0 mm 4 mps 629 mmHg 44%
    06:00 +1°C° 0 mm 5 mps 629 mmHg 46%
    07:00 +2°C° 0 mm 5 mps 629 mmHg 46%
    08:00 +3°C° 0 mm 6 mps 630 mmHg 47%
    09:00 +5°C° 0 mm 6 mps 630 mmHg 47%
    10:00 +6°C° 0 mm 7 mps 631 mmHg 46%
    11:00 +8°C° 0 mm 7 mps 631 mmHg 45%
    12:00 +9°C° 0 mm 8 mps 631 mmHg 44%
    13:00 +9°C° 0 mm 8 mps 631 mmHg 45%
    14:00 +7°C° 0 mm 8 mps 632 mmHg 47%
    15:00 +8°C° 0 mm 7 mps 632 mmHg 48%
    16:00 +5°C° 0 mm 7 mps 632 mmHg 56%
    17:00 +4°C° 0 mm 6 mps 632 mmHg 63%
    18:00 +2°C° 0 mm 5 mps 633 mmHg 70%
    19:00 +2°C° 0 mm 5 mps 633 mmHg 71%
    20:00 +2°C° 0 mm 5 mps 634 mmHg 73%
    21:00 +1°C° 0 mm 5 mps 634 mmHg 74%
    22:00 +1°C° 0.2 mm 4 mps 634 mmHg 76%
    23:00 0°C° 0.2 mm 4 mps 634 mmHg 78%

    14 December, Friday

    Time Temperature Precipitation Wind Pressure Humidity
    00:00 0°C° 0.2 mm 3 mps 634 mmHg 80%
    01:00 0°C° 0.1 mm 3 mps 634 mmHg 82%
    02:00 +1°C° 0.1 mm 2 mps 634 mmHg 83%
    03:00 -1°C° 0.1 mm 2 mps 634 mmHg 85%
    04:00 -1°C° 0 mm 2 mps 635 mmHg 86%
    05:00 -1°C° 0 mm 2 mps 635 mmHg 87%
    06:00 -1°C° 0 mm 2 mps 635 mmHg 88%
    07:00 +1°C° 0 mm 2 mps 635 mmHg 85%
    08:00 +1°C° 0 mm 2 mps 636 mmHg 81%
    09:00 +2°C° 0 mm 2 mps 636 mmHg 78%
    10:00 +2°C° 0.1 mm 3 mps 636 mmHg 74%
    11:00 +2°C° 0.1 mm 3 mps 635 mmHg 71%
    12:00 +3°C° 0.1 mm 3 mps 635 mmHg 67%
    13:00 +3°C° 0.1 mm 3 mps 635 mmHg 68%
    14:00 +3°C° 0.1 mm 3 mps 635 mmHg 70%
    15:00 +3°C° 0.1 mm 3 mps 635 mmHg 71%
    16:00 +2°C° 0.2 mm 3 mps 635 mmHg 75%
    17:00 +2°C° 0.2 mm 3 mps 635 mmHg 79%
    18:00 +2°C° 0.2 mm 2 mps 635 mmHg 83%
    19:00 +2°C° 0.4 mm 2 mps 635 mmHg 84%
    20:00 +2°C° 0.4 mm 2 mps 635 mmHg 85%
    21:00 +1°C° 0.4 mm 2 mps 635 mmHg 86%
    22:00 +1°C° 0.1 mm 2 mps 635 mmHg 85%
    23:00 -1°C° 0.1 mm 3 mps 635 mmHg 83%

    15 December, Saturday

    Time Temperature Precipitation Wind Pressure Humidity
    00:00 -1°C° 0.1 mm 3 mps 635 mmHg 82%
    01:00 -1°C° 0 mm 3 mps 635 mmHg 80%
    02:00 -2°C° 0 mm 3 mps 636 mmHg 77%
    03:00 -2°C° 0 mm 3 mps 636 mmHg 75%
    04:00 -4°C° 0 mm 3 mps 636 mmHg 75%
    05:00 -4°C° 0 mm 3 mps 636 mmHg 74%
    06:00 -4°C° 0 mm 3 mps 636 mmHg 74%
    07:00 -2°C° 0 mm 2 mps 636 mmHg 68%
    08:00 -1°C° 0 mm 2 mps 637 mmHg 63%
    09:00 +1°C° 0 mm 2 mps 637 mmHg 57%
    10:00 +1°C° 0 mm 3 mps 637 mmHg 54%
    11:00 +2°C° 0 mm 3 mps 637 mmHg 50%
    12:00 +2°C° 0 mm 3 mps 637 mmHg 47%
    13:00 +2°C° 0 mm 3 mps 637 mmHg 49%
    14:00 +2°C° 0 mm 3 mps 637 mmHg 50%
    15:00 +3°C° 0 mm 2 mps 637 mmHg 52%
    16:00 +2°C° 0 mm 2 mps 637 mmHg 58%
    17:00 +1°C° 0 mm 1 mps 637 mmHg 64%
    18:00 0°C° 0 mm 1 mps 637 mmHg 71%
    19:00 0°C° 0 mm 1 mps 637 mmHg 71%
    20:00 0°C° 0 mm 1 mps 637 mmHg 72%
    21:00 0°C° 0 mm 1 mps 637 mmHg 72%
    22:00 0°C° 0 mm 1 mps 637 mmHg 72%
    23:00 -1°C° 0 mm 1 mps 637 mmHg 71%
    Show more